Theta_e
266 268 267 266 266 262 257 258 259 260 260 263 266 272 274 276 276 276 276 276 276 275 275 275 275 274 275 275 275 276 276 276 276 276 276 275 274 276 277 279 279 279 281 281
265 270 269 265 267 266 264 259 259 263 263 266 269 272 273 275 276 276 276 277 277 277 277 276 276 275 275 273 273 274 274 275 276 277 276 275 275 274 276 279 276 277 279 279
264 268 267 263 262 264 261 262 261 260 266 271 270 272 274 274 275 275 276 278 278 278 277 277 276 276 273 273 273 272 272 272 274 273 274 274 274 274 274 275 274 273 275 278
261 263 256 262 269 270 266 265 267 267 267 268 268 270 275 276 273 274 275 276 278 278 277 275 275 274 273 273 272 271 271 272 271 270 271 272 271 270 272 273 274 273 274 274
258 259 262 266 268 265 264 264 266 264 266 267 269 271 270 273 272 272 274 275 275 277 276 275 274 273 272 272 272 272 272 271 271 269 268 269 269 269 268 269 270 271 272 272
260 255 259 262 269 272 270 262 266 266 265 265 266 262 266 269 271 271 273 275 275 275 275 274 274 273 272 271 271 271 272 273 272 271 269 267 267 267 268 268 268 271 270 268
261 256 262 267 268 271 260 258 265 266 265 264 261 264 266 268 269 271 271 272 273 274 273 273 274 272 270 271 270 272 273 273 273 272 270 269 267 266 267 267 268 264 265 267
260 258 256 268 266 260 261 265 265 264 264 263 264 265 265 267 267 268 268 270 271 271 273 273 274 272 270 269 271 272 272 272 272 271 272 272 268 264 265 264 262 262 263 267
258 262 266 269 265 265 260 259 261 259 262 262 261 262 263 264 264 265 266 267 269 269 270 271 273 272 269 270 271 270 270 269 269 270 272 272 265 263 263 261 262 262 266 265
257 260 259 263 263 264 262 257 257 257 258 260 258 260 261 261 262 262 264 265 267 267 267 268 272 273 270 270 271 269 268 268 268 268 268 269 272 270 266 265 262 268 268 266
256 258 260 264 261 257 254 254 253 254 254 254 258 258 258 259 260 261 262 263 264 264 266 268 270 271 271 270 269 269 268 268 268 269 268 268 270 268 267 266 269 266 265 267
254 253 256 256 255 254 252 251 251 250 256 255 252 256 258 259 260 260 260 262 263 264 265 266 267 268 269 269 269 268 267 268 268 268 267 269 269 269 275 276 277 278 278 276
256 252 252 255 253 251 253 253 252 256 252 254 256 256 257 258 259 263 261 260 261 262 264 264 265 266 268 268 268 268 267 268 267 270 267 267 268 269 268 272 277 277 278 278
252 252 250 249 251 253 250 253 256 255 254 254 256 258 258 259 260 259 259 260 261 262 263 261 263 264 265 266 267 266 266 270 268 266 267 267 268 269 269 269 269 269 274 275
250 251 253 253 250 251 251 254 252 253 255 256 256 259 259 260 260 261 261 262 264 264 260 261 261 261 263 265 265 262 263 263 264 266 268 270 270 269 269 269 269 268 269 272
250 250 251 249 253 254 256 255 255 256 258 259 260 260 261 262 263 262 263 264 263 262 262 262 261 262 263 262 263 263 262 268 268 265 266 267 268 269 269 268 266 267 268 269
251 250 253 255 257 257 258 259 259 259 259 259 259 261 261 262 263 262 263 264 264 264 263 262 262 265 264 263 261 263 265 264 269 268 267 266 267 269 268 267 266 266 267 271
254 258 258 257 257 258 258 259 260 259 259 259 260 261 261 261 261 263 263 264 264 264 264 265 265 265 265 264 263 263 264 265 265 265 268 269 268 265 264 264 264 264 266 270
260 259 259 260 259 258 259 259 259 259 259 259 260 260 261 262 263 264 264 264 263 263 264 265 268 269 266 265 266 264 265 265 265 266 267 269 267 269 267 265 264 266 265 267
260 260 260 260 259 259 258 259 258 258 259 260 261 261 260 261 263 264 264 263 265 265 267 268 268 267 267 267 270 265 265 265 265 267 268 266 267 267 265 267 265 264 263 265
258 258 258 258 258 258 259 257 257 258 259 261 259 260 259 261 262 263 262 262 264 269 269 269 268 268 268 269 269 268 267 267 267 268 267 267 267 266 265 265 265 265 265 265
256 256 257 258 257 257 257 258 259 259 259 259 260 260 260 260 261 262 263 262 265 270 267 266 269 271 270 270 268 267 267 267 267 266 266 265 266 265 264 263 263 264 264 262
255 256 257 256 256 255 257 259 258 259 259 259 260 260 260 260 261 261 259 263 265 268 264 264 270 271 269 264 264 265 265 265 264 264 264 264 264 263 262 261 262 263 261 261
255 256 255 258 254 256 255 257 258 260 258 261 260 261 260 260 261 263 264 265 267 267 264 265 268 270 266 261 262 263 262 262 263 262 262 265 261 261 260 260 260 260 260 261
254 254 256 255 254 257 258 258 259 259 258 259 259 261 261 262 261 262 263 263 265 265 262 265 267 267 261 261 262 261 261 261 260 260 261 261 258 258 258 258 258 258 258 259
253 255 258 256 256 257 259 258 258 258 259 257 258 261 260 261 261 262 262 263 261 263 261 261 262 262 261 260 261 259 259 259 259 259 260 259 257 257 257 256 256 256 257 257
256 261 258 256 258 259 260 260 256 257 258 257 258 259 259 260 260 260 261 260 260 260 260 261 260 261 262 262 259 258 258 258 260 260 259 258 257 256 255 256 255 256 256 257
Wind_Speed
3 3 5 7 6 8 6 3 4 4 2 4 6 6 7 5 5 5 4 4 4 3 2 1 1 1 2 3 4 4 4 4 5 4 4 5 5 5 4 5 4 4 5 5
2 3 9 9 9 10 4 5 3 4 2 3 3 3 1 2 2 3 4 3 4 4 4 4 3 3 2 1 2 3 3 3 3 4 4 5 5 5 5 4 4 4 4 3
3 5 11 5 4 7 4 5 2 7 5 11 10 10 4 3 3 6 8 2 5 5 6 5 4 3 3 2 1 2 2 2 3 3 3 4 4 5 5 4 3 3 3 4
2 2 1 3 4 9 9 6 8 7 10 11 10 11 4 10 11 10 8 7 5 6 5 5 4 4 3 3 3 3 2 1 1 2 2 3 3 3 4 3 3 2 2 3
2 2 3 4 2 2 1 7 10 9 10 12 16 2 10 14 13 11 11 8 6 2 2 5 5 4 4 4 4 3 4 4 3 2 1 2 2 3 3 3 3 3 2 2
4 1 0 3 10 7 2 4 11 11 10 11 13 6 5 18 16 14 12 12 9 6 2 2 4 5 5 5 5 5 5 4 5 5 4 3 3 3 2 1 3 3 3 3
5 2 4 10 13 5 2 1 10 10 10 8 4 5 15 16 16 14 14 13 14 10 6 5 5 5 6 5 6 5 3 2 4 4 5 5 4 3 2 2 3 3 3 5
4 3 2 12 5 3 1 5 9 9 10 10 11 13 14 16 16 16 16 15 14 12 11 7 6 5 6 7 6 5 4 4 4 4 4 3 5 3 3 3 3 4 4 5
3 1 3 4 8 7 3 2 5 5 10 11 13 15 17 15 15 14 15 14 14 12 13 13 8 7 7 6 5 5 5 5 5 5 5 4 4 4 2 3 3 3 3 3
7 2 5 2 8 9 4 2 3 4 7 11 13 14 14 14 14 14 13 14 12 13 14 13 12 10 7 6 5 4 5 5 5 5 5 5 5 4 4 3 3 4 3 3
6 3 10 7 7 6 4 4 4 5 5 8 9 12 12 13 13 13 13 13 12 13 13 14 9 8 6 5 5 5 5 4 5 5 5 4 5 4 4 4 5 3 3 3
6 3 4 7 6 5 6 4 5 4 10 7 4 11 11 12 11 11 13 14 12 11 12 11 8 6 6 5 4 5 5 6 6 4 4 5 4 4 11 13 15 15 14 10
6 1 4 9 5 3 8 8 7 8 7 11 12 10 11 11 10 17 12 13 10 11 11 10 10 10 6 4 5 5 6 6 4 7 4 4 3 3 3 5 11 10 12 13
0 4 7 3 6 8 6 9 12 9 8 8 11 11 10 10 11 10 11 12 12 13 12 8 10 10 7 5 7 7 5 14 6 4 4 3 4 3 3 3 3 3 6 7
1 2 7 8 5 8 6 6 6 7 8 8 7 9 10 13 14 12 11 11 12 13 7 7 9 11 5 7 7 5 4 3 4 3 3 5 3 2 3 3 3 2 2 5
5 5 6 4 8 8 7 7 6 8 11 11 12 13 15 16 14 11 10 9 10 7 6 6 7 7 6 5 6 4 5 14 10 4 3 2 1 3 3 2 2 2 2 2
5 6 4 5 8 9 9 10 11 11 12 12 14 15 16 16 14 11 10 8 8 8 6 6 7 5 4 5 5 4 5 5 12 6 4 4 4 5 2 2 2 2 2 3
6 9 7 5 7 9 9 11 10 11 11 13 14 13 14 14 14 12 11 10 9 8 7 5 5 5 5 5 6 5 4 3 3 3 4 6 3 3 2 2 2 2 3 3
6 6 7 9 8 8 9 10 10 10 11 11 12 12 12 13 14 11 11 10 8 7 6 5 12 7 5 8 8 5 5 4 4 4 3 6 1 3 3 2 2 1 2 2
6 7 7 9 8 8 9 8 8 10 10 12 11 11 11 12 14 12 10 9 9 9 9 8 6 4 4 5 11 6 6 5 5 4 4 3 2 2 2 3 2 1 2 2
6 7 8 8 9 8 8 6 9 9 10 11 10 11 10 12 12 11 11 9 15 10 13 17 9 2 3 6 5 1 7 5 4 3 3 2 1 3 2 1 0 1 1 1
4 5 7 7 7 8 8 8 7 8 10 8 10 10 10 11 11 9 7 9 9 22 12 8 7 17 9 20 4 1 2 2 1 2 3 3 2 1 0 0 0 1 2 2
4 3 5 6 7 6 8 6 6 9 7 8 9 9 9 7 8 8 7 12 9 13 8 9 17 17 19 9 7 7 7 6 4 3 2 2 1 0 1 1 2 1 2 2
3 4 5 7 4 5 6 5 8 9 5 9 9 7 7 7 7 6 8 12 18 14 11 13 14 17 14 5 5 5 4 4 3 2 1 3 0 1 1 2 2 2 2 4
3 5 6 3 4 5 8 7 8 7 7 8 9 7 8 7 6 8 5 5 14 11 7 15 18 17 5 4 5 4 4 4 4 3 2 2 1 2 2 2 2 3 3 3
3 4 5 2 4 4 5 6 6 6 7 7 7 6 6 6 7 8 7 11 7 12 6 6 7 6 6 5 3 4 3 4 4 4 4 2 3 2 2 3 3 2 3 4
3 7 2 3 3 5 5 7 6 7 7 7 7 5 6 6 8 9 11 8 7 7 7 7 6 8 7 6 5 5 5 4 8 5 4 3 2 3 3 3 3 3 3 3
Wind_Direction
104 117 91 70 69 60 65 239 63 294 17 291 316 349 40 82 124 135 132 140 128 122 112 139 148 47 32 21 18 1 23 38 23 22 24 27 28 12 6 46 32 13 26 16
152 140 99 70 53 64 73 4 4 359 87 339 292 302 91 50 9 180 173 185 162 172 198 201 198 170 146 51 8 7 23 35 20 23 27 24 22 15 26 31 24 30 29 19
140 158 142 96 333 89 81 24 203 36 10 6 7 5 18 74 43 8 358 287 195 197 219 219 186 173 165 172 173 7 8 19 23 24 27 20 10 15 16 14 26 5 32 27
261 106 258 222 141 107 99 63 32 24 14 7 346 326 331 40 21 4 349 337 266 219 188 178 160 180 167 196 195 186 260 271 166 34 0 356 4 3 352 353 352 6 24 19
92 81 136 180 40 28 37 69 32 15 8 358 340 360 68 29 13 349 340 330 320 315 183 171 174 196 189 226 217 206 219 205 194 184 261 320 328 315 317 334 337 333 329 335
356 9 30 24 360 330 298 177 17 11 2 350 346 3 332 351 347 339 338 336 331 319 278 246 236 189 207 239 239 233 232 204 184 186 197 225 257 279 259 293 278 293 309 326
339 3 97 353 317 302 224 271 356 359 348 341 344 312 318 326 325 330 331 330 325 323 301 270 239 196 215 240 244 236 192 192 226 202 198 208 214 221 248 282 305 315 302 289
337 350 245 356 7 75 350 355 351 351 334 328 315 313 308 313 315 318 320 323 321 314 306 281 265 216 228 238 242 215 175 223 238 242 240 233 197 220 230 230 254 267 271 282
112 15 61 352 100 72 64 322 351 342 335 325 311 309 310 309 314 314 313 310 309 305 308 308 263 221 221 233 248 214 193 220 236 245 239 222 196 217 225 222 213 252 250 254
29 325 322 193 84 34 50 34 313 313 315 316 306 306 310 311 308 307 306 302 300 305 296 290 287 266 220 208 234 225 217 229 236 238 240 239 247 202 204 233 224 223 235 250
261 5 352 132 63 31 8 353 320 296 283 287 298 307 298 304 304 302 302 299 298 291 289 291 294 299 299 231 204 221 223 233 240 242 241 253 248 219 204 221 198 193 228 209
249 196 189 265 329 338 5 324 302 298 309 302 271 294 295 294 292 294 290 289 289 304 296 282 287 283 280 289 229 205 230 237 232 228 233 236 232 249 261 243 242 254 251 238
258 327 206 257 268 22 336 307 282 294 283 290 292 283 285 286 290 293 317 295 290 287 289 289 282 277 266 255 264 227 225 238 247 248 216 226 239 222 232 271 269 258 260 262
258 32 339 4 289 295 275 277 292 281 267 271 276 283 279 283 289 288 284 279 279 281 275 264 275 267 257 246 241 236 226 240 221 234 246 230 230 226 224 227 241 268 306 294
49 167 233 274 303 289 271 283 296 290 286 292 287 305 313 310 303 295 287 284 285 280 260 272 267 265 245 234 228 209 212 232 251 264 267 248 223 217 236 240 243 259 298 302
298 291 298 290 287 296 302 313 300 316 322 323 326 323 319 314 307 301 298 299 304 307 278 290 260 265 242 213 221 211 221 234 224 223 239 248 230 230 235 218 215 236 253 256
339 328 299 290 307 314 316 320 320 324 327 327 322 319 317 316 314 316 315 310 305 300 267 255 270 270 221 199 202 226 224 220 239 227 213 222 230 232 195 185 217 240 247 271
230 257 279 293 307 314 321 315 322 326 326 318 311 312 314 316 319 320 321 315 310 303 287 274 262 233 218 207 202 222 239 229 246 247 237 230 203 164 171 206 233 238 262 279
271 305 309 318 317 319 316 322 328 325 312 306 309 312 313 320 322 320 323 319 310 320 307 291 289 322 216 216 205 211 226 225 235 243 211 239 236 183 183 191 224 273 300 321
325 324 327 319 328 319 318 326 316 307 309 314 318 320 331 329 327 328 327 324 319 308 289 295 330 259 258 248 270 179 204 222 231 232 208 188 184 177 187 210 205 223 301 301
329 327 323 319 316 320 325 310 306 310 313 321 328 325 326 320 326 332 345 344 333 350 12 349 317 284 299 268 266 205 189 207 229 228 189 76 164 127 111 134 154 360 305 289
299 297 301 307 320 315 312 302 308 316 313 321 318 318 325 326 327 325 345 343 329 345 6 347 354 24 32 26 51 135 90 102 114 102 81 89 102 84 41 85 261 286 282 286
281 293 314 307 297 294 296 305 311 317 320 318 311 321 320 322 326 335 345 337 344 343 11 335 351 38 25 15 17 20 26 37 49 56 63 68 65 180 216 239 262 284 304 297
306 310 291 289 315 308 319 327 323 326 320 324 334 330 340 330 328 328 323 339 334 12 6 334 351 13 32 1 360 8 8 7 4 359 319 294 204 247 240 244 261 272 289 310
293 285 287 336 320 321 317 331 325 334 330 329 331 329 346 337 329 315 341 335 348 357 7 346 355 3 1 360 347 1 346 336 300 256 307 298 258 256 256 252 246 243 256 269
281 282 297 310 286 307 318 320 331 333 332 325 324 332 341 336 333 354 337 345 357 348 338 342 337 349 343 325 351 327 314 306 318 303 285 269 263 258 238 246 247 259 276 267
288 330 305 327 318 317 320 347 340 326 331 319 306 338 335 339 332 357 347 345 342 337 333 335 335 331 331 319 321 299 292 287 297 275 239 261 257 234 239 239 242 248 255 261